Regional Weather Roundup
Issued by NWS Sioux Falls, SD

Home | Current Version | Previous Version | Text Only | Print | Product List | Glossary On
Versions: 1 2 3 4 5 6 7 8 9 10 11 12 13 14 15 16 17 18 19 20 21 22 23 24 25 26 27 28 29 30 31 32 33 34 35 36 37 38 39 40 41 42 43 44 45 46 47 48 49 50
000
ASUS43 KFSD 190110
RWRFSD

WEATHER ROUNDUP FOR SE SOUTH DAKOTA/SW MINNESOTA/NW IOWA
NATIONAL WEATHER SERVICE SIOUX FALLS SD
800 PM CDT FRI AUG 18 2017

NOTE: "FAIR" INDICATES FEW OR NO CLOUDS BELOW 12,000 FEET WITH NO
SIGNIFICANT WEATHER AND OR OBSTRUCTIONS TO VISIBILITY.


SDZ038>040-050-052>070-190200-
SOUTHEAST SOUTH DAKOTA

CITY           SKY/WX    TMP DP  RH WIND       PRES   REMARKS
BROOKINGS      CLEAR     66  59  78 N13       29.92R
CHAMBERLAIN    CLEAR     76  61  59 CALM      29.97R
HURON          CLEAR     70  61  73 N6        29.94R
MADISON        FAIR      68  61  77 N14G20    29.93R
MITCHELL       CLEAR     71  62  73 NW7       29.95R
SIOUX FALLS    PTCLDY    73  61  65 NW12      29.90R
WINNER         FAIR      77  61  57 E3        29.98R
YANKTON        CLEAR     75  60  59 NW14      29.93R
$$

MNZ071-072-080-081-089-090-097-098-190200-
SOUTHWEST MINNESOTA

CITY           SKY/WX    TMP DP  RH WIND       PRES   REMARKS
FAIRMONT       CLOUDY    69  63  81 SE6       29.91S
JACKSON        CLOUDY    70  63  78 SE8       29.89F
LUVERNE        CLOUDY    72  55  56 NW14G24   29.90R
MARSHALL       CLOUDY    63  61  93 N3        29.91R
MONTEVIDEO     CLOUDY    66  63  88 CALM      29.89R
PIPESTONE      CLOUDY    72  63  73 N5        29.91R
REDWOOD FALLS  LGT RAIN  65  60  84 S9        29.87R
TRACY          RAIN      62  61  97 SE7       29.89F
WINDOM         TSTM      59  57  94 SE6       29.96R
WORTHINGTON    TSTM      63  61  94 SW7       29.93R
$$

IAZ001>003-012>014-020>022-031-032-NEZ013-014-SDZ071-190200-
NORTHWEST IOWA

CITY           SKY/WX    TMP DP  RH WIND       PRES   REMARKS
CHEROKEE       PTCLDY    75  68  78 S3        29.89S
DENISON        CLEAR     77  68  73 CALM      29.91R
ESTHERVILLE    MOCLDY    68  65  90 SE7       29.89F
LE MARS        CLEAR     77  68  73 CALM      29.89R
ORANGE CITY    CLEAR     75  70  83 W5        29.90R
SHELDON        CLOUDY    75  66  73 SW8       29.86S
SIOUX CITY     PTCLDY    79  68  69 NW8       29.88S
SPENCER        CLOUDY    74  63  68 SE8       29.89F
STORM LAKE     CLEAR     73  66  78 S6        29.90S
$$

ABBREVIATIONS USED IN REMARKS
   TC - TEMPERATURE IN CELSIUS
  WCI - WIND CHILL INDEX
   HX - HEAT INDEX
  VSB - VISIBILITY





USA.gov is the U.S. government's official web portal to all federal, state and local government web resources and services.